2022-08-24 00:09:22 r, 20.35m,0000000001Hz,0000756222c,0000001.641s, 027.7C,00002191
2022-08-24 00:19:21 r, 20.28m,0000000001Hz,0000704749c,0000001.529s, 027.7C,00002191
2022-08-24 00:29:21 r, 20.28m,0000000001Hz,0000707175c,0000001.535s, 027.7C,00002191
2022-08-24 00:39:22 r, 20.11m,0000000001Hz,0000604693c,0000001.312s, 028.0C,00002191
2022-08-24 00:49:21 r, 20.52m,0000000000Hz,0000878176c,0000001.906s, 028.0C,00002191
2022-08-24 00:59:21 r, 20.61m,0000000000Hz,0000946426c,0000002.054s, 028.0C,00002191
2022-08-24 01:09:23 r, 20.74m,0000000001Hz,0001069497c,0000002.321s, 028.0C,00002191
2022-08-24 01:19:21 r, 20.72m,0000000000Hz,0001053100c,0000002.285s, 028.3C,00002191
2022-08-24 01:29:21 r, 20.92m,0000000001Hz,0001268709c,0000002.753s, 028.3C,00002191
2022-08-24 01:39:24 r, 21.08m,0000000001Hz,0001454610c,0000003.157s, 028.3C,00002191
2022-08-24 01:49:21 r, 21.33m,0000000001Hz,0001830953c,0000003.973s, 028.3C,00002191
2022-08-24 01:59:21 r, 21.51m,0000000000Hz,0002150749c,0000004.667s, 028.0C,00002191
2022-08-24 02:09:22 r, 21.48m,0000000000Hz,0002094240c,0000004.545s, 028.0C,00002191
2022-08-24 02:19:21 r, 21.33m,0000000000Hz,0001825201c,0000003.961s, 027.7C,00002191
2022-08-24 02:29:21 r, 21.28m,0000000001Hz,0001739053c,0000003.774s, 027.7C,00002191
2022-08-24 02:39:22 r, 21.40m,0000000001Hz,0001948244c,0000004.228s, 027.7C,00002191
2022-08-24 02:49:21 r, 20.87m,0000000000Hz,0001205425c,0000002.616s, 027.3C,00002191
2022-08-24 02:59:21 r, 20.88m,0000000001Hz,0001225480c,0000002.659s, 027.3C,00002191
2022-08-24 03:09:23 r, 20.76m,0000000000Hz,0001095953c,0000002.378s, 027.3C,00002191
2022-08-24 03:19:21 r, 20.65m,0000000001Hz,0000986859c,0000002.142s, 027.7C,00002191
2022-08-24 03:29:21 r, 20.62m,0000000000Hz,0000957135c,0000002.077s, 027.7C,00002191
2022-08-24 03:39:24 r, 20.52m,0000000001Hz,0000870970c,0000001.890s, 027.7C,00002191
2022-08-24 03:49:22 r, 20.75m,0000000000Hz,0001073377c,0000002.329s, 028.0C,00002191
2022-08-24 03:59:21 r, 20.88m,0000000001Hz,0001223165c,0000002.654s, 028.0C,00002191
2022-08-24 04:09:24 r, 20.82m,0000000001Hz,0001154954c,0000002.506s, 028.0C,00002191
2022-08-24 04:19:22 r, 20.88m,0000000001Hz,0001215912c,0000002.639s, 028.0C,00002191
2022-08-24 04:29:21 r, 20.91m,0000000000Hz,0001251556c,0000002.716s, 028.3C,00002191
2022-08-24 04:39:22 r, 20.66m,0000000001Hz,0000991911c,0000002.153s, 028.3C,00002191
2022-08-24 04:49:23 r, 20.88m,0000000001Hz,0001226348c,0000002.661s, 028.3C,00002191
2022-08-24 04:59:21 r, 20.79m,0000000000Hz,0001116333c,0000002.423s, 028.3C,00002191
2022-08-24 05:09:23 r, 20.40m,0000000000Hz,0000791199c,0000001.717s, 028.3C,00002191
2022-08-24 05:19:22 r, 19.85m,0000000001Hz,0000476106c,0000001.033s, 028.3C,00002191
2022-08-24 05:29:21 r, 18.87m,0000000003Hz,0000192875c,0000000.419s, 028.3C,00002191
2022-08-24 05:39:22 r, 17.43m,0000000008Hz,0000051575c,0000000.112s, 028.3C,00002191
2022-08-24 05:49:24 r, 15.72m,0000000044Hz,0000010705c,0000000.023s, 028.3C,00002191
2022-08-24 05:59:21 r, 13.98m,0000000217Hz,0000000000c,0000000.000s, 028.3C,00002191
2022-08-24 06:09:24 r, 12.01m,0000001334Hz,0000000000c,0000000.000s, 028.3C,00002191
2022-08-24 06:19:22 r, 10.17m,0000007196Hz,0000000000c,0000000.000s, 028.3C,00002191
2022-08-24 06:29:21 r, 08.97m,0000021820Hz,0000000000c,0000000.000s, 028.3C,00002191
2022-08-24 06:39:22 r, 08.21m,0000044285Hz,0000000000c,0000000.000s, 028.3C,00002191
2022-08-24 06:49:23 r, 07.56m,0000080545Hz,0000000000c,0000000.000s, 028.3C,00002191
2022-08-24 06:59:21 r, 06.46m,0000220555Hz,0000000000c,0000000.000s, 028.3C,00002191
2022-08-24 07:09:23 r, 06.20m,0000280271Hz,0000000000c,0000000.000s, 028.6C,00002191
2022-08-24 07:19:22 r, 05.93m,0000359631Hz,0000000000c,0000000.000s, 029.3C,00002191
2022-08-24 07:29:21 r, 00.00m,0000440383Hz,0000000000c,0000000.000s, 029.6C,00002191
2022-08-24 07:39:22 r, 00.00m,0000531870Hz,0000000000c,0000000.000s, 030.2C,00002191
2022-08-24 07:49:24 r, 00.00m,0000596491Hz,0000000000c,0000000.000s, 030.9C,00002191
2022-08-24 07:59:21 r, 00.00m,0000596544Hz,0000000000c,0000000.000s, 030.9C,00002191
2022-08-24 08:09:21 r, 00.00m,0000596503Hz,0000000000c,0000000.000s, 031.2C,00002191
2022-08-24 08:19:22 r, 00.00m,0000596403Hz,0000000000c,0000000.000s, 031.5C,00002191
2022-08-24 08:29:21 r, 00.00m,0000596404Hz,0000000000c,0000000.000s, 031.9C,00002191
2022-08-24 08:39:24 r, 00.00m,0000596357Hz,0000000000c,0000000.000s, 031.9C,00002191
2022-08-24 08:49:22 r, 00.00m,0000596378Hz,0000000000c,0000000.000s, 031.9C,00002191
2022-08-24 08:59:21 r, 00.00m,0000596165Hz,0000000000c,0000000.000s, 032.5C,00002191
2022-08-24 09:09:22 r, 00.00m,0000596153Hz,0000000000c,0000000.000s, 033.5C,00002191
2022-08-24 09:19:23 r, 00.00m,0000596020Hz,0000000000c,0000000.000s, 034.4C,00002191
2022-08-24 09:29:21 r, 00.00m,0000595834Hz,0000000000c,0000000.000s, 035.4C,00002191
2022-08-24 09:39:23 r, 00.00m,0000595508Hz,0000000000c,0000000.000s, 037.0C,00002191
2022-08-24 09:49:22 r, 00.00m,0000595413Hz,0000000000c,0000000.000s, 038.6C,00002191
2022-08-24 09:59:21 r, 00.00m,0000595551Hz,0000000000c,0000000.000s, 038.3C,00002191
2022-08-24 10:09:24 r, 00.00m,0000595750Hz,0000000000c,0000000.000s, 037.0C,00002191
2022-08-24 10:19:22 r, 00.00m,0000595914Hz,0000000000c,0000000.000s, 035.7C,00002191
2022-08-24 10:29:21 r, 00.00m,0000596022Hz,0000000000c,0000000.000s, 035.1C,00002191
2022-08-24 10:39:24 r, 00.00m,0000595933Hz,0000000000c,0000000.000s, 034.8C,00002191
2022-08-24 10:49:22 r, 00.00m,0000595884Hz,0000000000c,0000000.000s, 035.4C,00002191
2022-08-24 10:59:21 r, 00.00m,0000595720Hz,0000000000c,0000000.000s, 036.0C,00002191
2022-08-24 11:09:22 r, 00.00m,0000595645Hz,0000000000c,0000000.000s, 036.7C,00002191
2022-08-24 11:19:23 r, 00.00m,0000595839Hz,0000000000c,0000000.000s, 036.7C,00002191
2022-08-24 11:29:21 r, 00.00m,0000595698Hz,0000000000c,0000000.000s, 036.7C,00002191
2022-08-24 11:39:23 r, 00.00m,0000595731Hz,0000000000c,0000000.000s, 036.0C,00002191
2022-08-24 11:49:22 r, 00.00m,0000595931Hz,0000000000c,0000000.000s, 035.7C,00002191
2022-08-24 11:59:21 r, 00.00m,0000595922Hz,0000000000c,0000000.000s, 035.1C,00002191
2022-08-24 12:09:22 r, 00.00m,0000595938Hz,0000000000c,0000000.000s, 034.8C,00002191
2022-08-24 12:19:24 r, 00.00m,0000595936Hz,0000000000c,0000000.000s, 034.8C,00002191
2022-08-24 12:29:21 r, 00.00m,0000595954Hz,0000000000c,0000000.000s, 034.8C,00002191
2022-08-24 12:39:24 r, 00.00m,0000596050Hz,0000000000c,0000000.000s, 034.8C,00002191
2022-08-24 12:49:22 r, 00.00m,0000596039Hz,0000000000c,0000000.000s, 034.8C,00002191
2022-08-24 12:59:21 r, 00.00m,0000595975Hz,0000000000c,0000000.000s, 035.1C,00002191
2022-08-24 13:09:24 r, 00.00m,0000596022Hz,0000000000c,0000000.000s, 035.1C,00002191
2022-08-24 13:19:22 r, 00.00m,0000596031Hz,0000000000c,0000000.000s, 035.4C,00002191
2022-08-24 13:29:21 r, 00.00m,0000596047Hz,0000000000c,0000000.000s, 035.4C,00002191
2022-08-24 13:39:22 r, 00.00m,0000595876Hz,0000000000c,0000000.000s, 036.0C,00002191
2022-08-24 13:49:24 r, 00.00m,0000595658Hz,0000000000c,0000000.000s, 037.3C,00002191
2022-08-24 13:59:21 r, 00.00m,0000595426Hz,0000000000c,0000000.000s, 039.0C,00002191
2022-08-24 14:09:23 r, 00.00m,0000595338Hz,0000000000c,0000000.000s, 039.3C,00002191
2022-08-24 14:19:22 r, 00.00m,0000595390Hz,0000000000c,0000000.000s, 039.3C,00002191
2022-08-24 14:29:21 r, 00.00m,0000595224Hz,0000000000c,0000000.000s, 040.2C,00002191
2022-08-24 14:39:24 r, 00.00m,0000595076Hz,0000000000c,0000000.000s, 040.9C,00002191
2022-08-24 14:49:22 r, 00.00m,0000594990Hz,0000000000c,0000000.000s, 041.5C,00002191
2022-08-24 14:59:21 r, 00.00m,0000595041Hz,0000000000c,0000000.000s, 041.2C,00002191
2022-08-24 15:09:24 r, 00.00m,0000595062Hz,0000000000c,0000000.000s, 041.5C,00002191
2022-08-24 15:19:22 r, 00.00m,0000594989Hz,0000000000c,0000000.000s, 041.9C,00002191
2022-08-24 15:29:21 r, 00.00m,0000594972Hz,0000000000c,0000000.000s, 041.2C,00002191
2022-08-24 15:39:22 r, 00.00m,0000594899Hz,0000000000c,0000000.000s, 041.5C,00002191
2022-08-24 15:49:23 r, 00.00m,0000594724Hz,0000000000c,0000000.000s, 042.8C,00002191
2022-08-24 15:59:21 r, 00.00m,0000594770Hz,0000000000c,0000000.000s, 042.5C,00002191
2022-08-24 16:09:23 r, 00.00m,0000594953Hz,0000000000c,0000000.000s, 042.2C,00002191
2022-08-24 16:19:22 r, 00.00m,0000594868Hz,0000000000c,0000000.000s, 042.2C,00002191
2022-08-24 16:29:22 r, 00.00m,0000595072Hz,0000000000c,0000000.000s, 041.2C,00002191
2022-08-24 16:39:22 r, 00.00m,0000595190Hz,0000000000c,0000000.000s, 040.2C,00002191
2022-08-24 16:49:22 r, 00.00m,0000595181Hz,0000000000c,0000000.000s, 039.9C,00002191
2022-08-24 16:59:22 r, 00.00m,0000595212Hz,0000000000c,0000000.000s, 039.6C,00002191
2022-08-24 17:09:22 r, 00.00m,0000595301Hz,0000000000c,0000000.000s, 039.3C,00002191
2022-08-24 17:19:22 r, 00.00m,0000595090Hz,0000000000c,0000000.000s, 039.9C,00002191
2022-08-24 17:29:22 r, 00.00m,0000595093Hz,0000000000c,0000000.000s, 040.9C,00002191
2022-08-24 17:39:22 r, 00.00m,0000595220Hz,0000000000c,0000000.000s, 039.3C,00002191
2022-08-24 17:49:23 r, 00.00m,0000595308Hz,0000000000c,0000000.000s, 039.0C,00002191
2022-08-24 17:59:22 r, 00.00m,0000595262Hz,0000000000c,0000000.000s, 038.3C,00002191
2022-08-24 18:09:22 r, 00.00m,0000425723Hz,0000000000c,0000000.000s, 037.3C,00002191
2022-08-24 18:19:24 r, 00.00m,0000462016Hz,0000000000c,0000000.000s, 036.0C,00002191
2022-08-24 18:29:22 r, 00.00m,0000595890Hz,0000000000c,0000000.000s, 035.1C,00002191
2022-08-24 18:39:22 r, 00.00m,0000595764Hz,0000000000c,0000000.000s, 035.1C,00002191
2022-08-24 18:49:24 r, 00.00m,0000464896Hz,0000000000c,0000000.000s, 034.4C,00002191
2022-08-24 18:59:22 r, 00.00m,0000459284Hz,0000000000c,0000000.000s, 033.8C,00002191
2022-08-24 19:09:22 r, 00.00m,0000540832Hz,0000000000c,0000000.000s, 033.5C,00002191
2022-08-24 19:19:22 r, 00.00m,0000482019Hz,0000000000c,0000000.000s, 033.1C,00002191
2022-08-24 19:29:22 r, 00.00m,0000431627Hz,0000000000c,0000000.000s, 032.8C,00002191
2022-08-24 19:39:22 r, 06.37m,0000238775Hz,0000000000c,0000000.000s, 032.5C,00002191
2022-08-24 19:49:22 r, 06.89m,0000148959Hz,0000000000c,0000000.000s, 031.5C,00002191
2022-08-24 19:59:22 r, 06.71m,0000174242Hz,0000000000c,0000000.000s, 031.2C,00002191
2022-08-24 20:09:22 r, 07.02m,0000131439Hz,0000000000c,0000000.000s, 030.9C,00002191
2022-08-24 20:19:24 r, 08.19m,0000044787Hz,0000000000c,0000000.000s, 030.9C,00002191
2022-08-24 20:29:22 r, 09.12m,0000019029Hz,0000000000c,0000000.000s, 030.2C,00002191
2022-08-24 20:39:22 r, 10.15m,0000007334Hz,0000000000c,0000000.000s, 029.6C,00002191
2022-08-24 20:49:24 r, 11.90m,0000001467Hz,0000000000c,0000000.000s, 029.3C,00002191
2022-08-24 20:59:22 r, 13.80m,0000000255Hz,0000000000c,0000000.000s, 029.0C,00002191
2022-08-24 21:09:22 r, 15.71m,0000000044Hz,0000010545c,0000000.023s, 028.3C,00002191
2022-08-24 21:19:23 r, 17.36m,0000000009Hz,0000048289c,0000000.105s, 028.0C,00002191
2022-08-24 21:29:23 r, 18.83m,0000000002Hz,0000186082c,0000000.404s, 028.0C,00002191
2022-08-24 21:39:22 r, 20.06m,0000000000Hz,0000580019c,0000001.259s, 027.7C,00002191
2022-08-24 21:49:23 r, 21.11m,0000000000Hz,0001487669c,0000003.228s, 027.3C,00002191
2022-08-24 21:59:22 r, 21.70m,0000000000Hz,0002552626c,0000005.540s, 027.0C,00002191
2022-08-24 22:09:22 r, 21.94m,0000000000Hz,0003154335c,0000006.845s, 026.7C,00002191
2022-08-24 22:19:22 r, 22.01m,0000000001Hz,0003347915c,0000007.265s, 026.4C,00002191
2022-08-24 22:29:24 r, 22.04m,0000000000Hz,0003420676c,0000007.423s, 026.1C,00002191
2022-08-24 22:39:22 r, 22.04m,0000000000Hz,0003433787c,0000007.452s, 026.1C,00002191
2022-08-24 22:49:24 r, 22.03m,0000000000Hz,0003379688c,0000007.334s, 025.7C,00002191
2022-08-24 22:59:23 r, 22.04m,0000000001Hz,0003438458c,0000007.462s, 025.4C,00002191
2022-08-24 23:09:22 r, 22.07m,0000000000Hz,0003509369c,0000007.616s, 025.4C,00002191
2022-08-24 23:19:24 r, 22.06m,0000000000Hz,0003504875c,0000007.606s, 025.1C,00002191
2022-08-24 23:29:23 r, 22.08m,0000000001Hz,0003544577c,0000007.692s, 025.1C,00002191
2022-08-24 23:39:22 r, 22.08m,0000000000Hz,0003555882c,0000007.717s, 024.8C,00002191
2022-08-24 23:49:23 r, 22.09m,0000000000Hz,0003576305c,0000007.761s, 024.8C,00002191
2022-08-24 23:59:24 r, 22.11m,0000000000Hz,0003649815c,0000007.921s, 024.8C,00002191
